Weather in Naro-Fominsk

Russia / Moscow Oblast     55°23′03″N   36°43′23″E
В апреле 2022 года жителям России запретили посещать сайт meteo.paraplan.net по решению Генеральной прокуратуры. Аудитория сайта уменьшилась в 10 раз. Владельцы сайта не видят смысла в поддержке погодного сервера в таких условиях. Сайт будет закрыт в октябре.
temp.,
°C
wind,
m/s
gust,
m/s
humid.,
%
clouds,
%
prec.,
mm/h
press.,
hPa
HPBL,
m
25 september, sun
sun2500:00+7wnw3897100 0.7 997538
03:00+7wnw3898100 2.3 997595
06:00+7wnw4998100 0.7 998467
09:00+7wnw3897100 2.2 999471
12:00+8nw3591100 0.4 1001576
15:00+8nne2492100 0.8 1002399
18:00+7nnw2496100 0.1 1004186
21:00+7wnw2495100 0.4 1005165
26 september, mon
mon2600:00+6w259798 0.1 1006228
03:00+6w2696100 0.1 1007282
06:00+6w2798100 0.3 1007301
09:00+7w3695100 0.5 1008384
12:00+9w357996 0.5 1009879
15:00+9w368498 1.1 1010682
18:00+8w368993 0.3 1011318
21:00+6wsw239498 0.4 101276
27 september, tue
tue2700:00+5wsw229598 0.0 101225
03:00+6sw2291100 0.0 101256
06:00+6s1192100 0.0 101226
09:00+8sse2390100 0.0 1013167
12:00+11sse237436 0.0 1013545
15:00+13se235720 0.1 10131300
18:00+9ese247741 0.0 101378
21:00+7ese2891100 0.0 1014193
28 september, wed
wed2800:00+6e31090100 0.0 1013282
03:00+6e4129368 0.0 1012357
06:00+6e51491100 0.0 1011577
09:00+8e61479100 0.0 1010853
12:00+7e61590100 1.9 1009797
15:00+7e61494100 5.1 1008848
18:00+7e71495100 3.3 1007619
21:00+7e61396100 6.3 1007723
29 september, thu
thu2900:00+7e51296100 1.1 1007652
03:00+7ene41196100 1.3 1007550
06:00+7ene31096100 1.4 1008585
09:00+6ene3896100 1.6 1009510
12:00+6ene3796100 0.4 1012452
15:00+6ene3595100 0.5 1014457
18:00+5ene3695100 0.1 1016421
21:00+5e3796100 0.2 1018415